Broomfield, CO

8:10 PM MST on February 20, 2017 (GMT -0700)
Jeffco

Weather History for KBJC - February, 2013

Change the Weather History Date:

Thursday, February 14, 2013

  Actual Average Record
Temperature  
Mean Temperature 28 °F -  
Max Temperature 32 °F 45 °F 66 °F (1999)
Min Temperature 23 °F 24 °F 2 °F (1990)
Degree Days  
Heating Degree Days 38    
Moisture  
Dew Point 19 °F    
Average Humidity 72    
Maximum Humidity 80    
Minimum Humidity 51    
Precipitation  
Precipitation 0.00 in - - ()
Sea Level Pressure  
Sea Level Pressure 30.18 in    
Wind  
Wind Speed 8 mph (NNE)    
Max Wind Speed 25 mph    
Max Gust Speed 32 mph    
Visibility 6 miles    
Events Snow    
Averages and records for this station are not official NWS values.
T = Trace of Precipitation, MM = Missing Value Source: NWS Daily Summary

Daily Weather History Graph

Daily Weather History Graph

Search for Another Location

Airport or City:

Trip Planner

Search our weather history database for the weather conditions in past years. The results will help you decide how hot, cold, wet, or windy it might be!

Date:

Astronomy

Feb. 14, 2013 Rise Set
Actual Time 6:54 AM MST 5:35 PM MST
Civil Twilight 6:26 AM MST 6:03 PM MST
Nautical Twilight 5:54 AM MST 6:35 PM MST
Astronomical Twilight 5:23 AM MST 7:06 PM MST
Moon 8:57 AM MST (2/14) 10:40 PM MST (2/14)
Length of Visible Light 11h 37m
Length of Day
10h 41m
Waxing Crescent, 22% of the Moon is Illuminated
Feb 14
Waxing Crescent
Feb 17
First Quarter
Feb 25
Full
Mar 4
Last Quarter
Mar 11
New

Hourly Weather History & Observations

Time (MST) Temp. Windchill Dew Point Humidity Pressure Visibility Wind Dir Wind Speed Gust Speed Precip Events Conditions
5:48 AM 28.4 °F 23.3 °F 21.2 °F 74% 30.08 in 30.0 mi SSE 4.6 mph - N/A   Scattered Clouds
6:45 AM 28.4 °F 22.2 °F 14.0 °F 55% 30.00 in 70.0 mi SW 5.8 mph - N/A   Mostly Cloudy
7:09 AM 30.2 °F 22.6 °F 14.0 °F 51% 30.01 in 70.0 mi North 8.1 mph 17.3 mph N/A   Mostly Cloudy
8:45 AM 28.4 °F - 15.8 °F 59% 30.04 in 50.0 mi Calm Calm - N/A   Mostly Cloudy
10:47 AM 32.0 °F 18.6 °F 21.2 °F 64% 30.14 in 30.0 mi NNE 25.3 mph 32.2 mph N/A   Overcast
10:57 AM 28.4 °F 14.4 °F 21.2 °F 74% 30.16 in 7.0 mi NNE 23.0 mph 25.3 mph N/A   Overcast
11:47 AM 26.6 °F 14.7 °F 21.2 °F 80% 30.20 in 1.0 mi North 15.0 mph - N/A Snow Light Snow
12:46 PM 26.6 °F 16.2 °F 21.2 °F 80% 30.21 in 0.8 mi North 11.5 mph - N/A Snow Light Snow
1:24 PM 26.6 °F 16.2 °F 21.2 °F 80% 30.21 in 1.0 mi North 11.5 mph - N/A Snow Light Snow
1:59 PM 26.6 °F 18.2 °F 21.2 °F 80% 30.21 in 1.0 mi NNE 8.1 mph - N/A Snow Light Snow
2:46 PM 26.6 °F 19.1 °F 21.2 °F 80% 30.23 in 0.8 mi NNE 6.9 mph - N/A Snow Light Snow
3:29 PM 26.6 °F 22.6 °F 21.2 °F 80% 30.23 in 0.5 mi ENE 3.5 mph - N/A Snow Light Snow
3:46 PM 26.6 °F 22.6 °F 21.2 °F 80% 30.23 in 1.5 mi East 3.5 mph - N/A Snow Light Snow
4:50 PM 26.6 °F 20.0 °F 17.6 °F 69% 30.24 in 8.0 mi East 5.8 mph - N/A   Overcast
5:50 PM 26.6 °F 21.2 °F 15.8 °F 64% 30.24 in 6.0 mi SSE 4.6 mph - N/A   Overcast
6:50 PM 24.8 °F 19.1 °F 17.6 °F 74% 30.25 in 15.0 mi WSW 4.6 mph - N/A   Overcast
7:50 PM 24.8 °F 19.1 °F 17.6 °F 74% 30.25 in 15.0 mi West 4.6 mph - N/A   Overcast
8:51 PM 23.0 °F 18.4 °F 17.6 °F 80% 30.24 in 15.0 mi Variable 3.5 mph - N/A   Overcast
9:50 PM 24.8 °F 17.9 °F 17.6 °F 74% 30.23 in 15.0 mi SSW 5.8 mph - N/A   Scattered Clouds